Glenwood, MN

7:29 AM CST on February 07, 2016 (GMT -0600)
Glenwood Municipal

Weather History for KGHW - March, 2013

Change the Weather History Date:

Sunday, March 10, 2013

  Actual Average Record
Temperature  
Mean Temperature 22 °F -  
Max Temperature 28 °F 35 °F 53 °F (2012)
Min Temperature 15 °F 15 °F -13 °F (2003)
Degree Days  
Heating Degree Days 44    
Moisture  
Dew Point 21 °F    
Average Humidity 86    
Maximum Humidity 93    
Minimum Humidity 74    
Precipitation  
Precipitation 0.00 in - - ()
Sea Level Pressure  
Sea Level Pressure 29.97 in    
Wind  
Wind Speed 15 mph (NNW)    
Max Wind Speed 21 mph    
Max Gust Speed 28 mph    
Visibility 8 miles    
Events      
Averages and records for this station are not official NWS values.
T = Trace of Precipitation, MM = Missing Value Source: NWS Daily Summary

Daily Weather History Graph

Daily Weather History Graph

Search for Another Location

Airport or City:

Trip Planner

Search our weather history database for the weather conditions in past years. The results will help you decide how hot, cold, wet, or windy it might be!

Date:

Astronomy

Mar. 10, 2013 Rise Set
Actual Time 7:42 AM CDT 7:20 PM CDT
Civil Twilight 7:13 AM CDT 7:50 PM CDT
Nautical Twilight 6:38 AM CDT 8:24 PM CDT
Astronomical Twilight 6:04 AM CDT 8:59 PM CDT
Moon 6:45 AM CDT (3/10) 6:29 PM CDT (3/10)
Length of Visible Light 12h 37m
Length of Day
11h 38m
Waning Crescent, 2% of the Moon is Illuminated
Mar 10
Waning Crescent
Mar 11
New
Mar 19
First Quarter
Mar 27
Full
Apr 2
Last Quarter

Hourly Weather History & Observations

Time (CDT) Temp. Windchill Dew Point Humidity Pressure Visibility Wind Dir Wind Speed Gust Speed Precip Events Conditions
12:13 AM 28.4 °F 15.8 °F 26.6 °F 93% 29.85 in 4.0 mi NNW 18.4 mph 21.9 mph N/A   Scattered Clouds
12:33 AM 28.4 °F 17.0 °F 26.6 °F 93% 29.84 in 5.0 mi NNW 15.0 mph 21.9 mph N/A   Clear
12:53 AM 28.4 °F 17.5 °F 26.6 °F 93% 29.85 in 5.0 mi NNW 13.8 mph - N/A   Mostly Cloudy
1:13 AM 26.6 °F 16.2 °F 24.8 °F 93% 29.87 in 7.0 mi NNW 11.5 mph - N/A   Overcast
1:33 AM 26.6 °F 15.7 °F 24.8 °F 93% 29.89 in 7.0 mi NNW 12.7 mph - N/A   Overcast
1:53 AM 26.6 °F 15.7 °F 24.8 °F 93% 29.90 in 7.0 mi NNW 12.7 mph - N/A   Overcast
3:13 AM 26.6 °F 14.3 °F 24.8 °F 93% 29.90 in 7.0 mi NNW 16.1 mph - N/A   Overcast
3:33 AM 26.6 °F 13.4 °F 24.8 °F 93% 29.89 in 5.0 mi NNW 18.4 mph - N/A   Overcast
3:53 AM 24.8 °F 12.4 °F 23.0 °F 93% 29.88 in 5.0 mi NNW 15.0 mph - N/A   Overcast
4:13 AM 24.8 °F 11.1 °F 23.0 °F 93% 29.88 in 5.0 mi NNW 18.4 mph 23.0 mph N/A   Overcast
4:34 AM 24.8 °F 11.9 °F 23.0 °F 93% 29.89 in 5.0 mi NNW 16.1 mph - N/A   Overcast
4:53 AM 24.8 °F 11.9 °F 23.0 °F 93% 29.90 in 5.0 mi NNW 16.1 mph - N/A   Overcast
5:13 AM 24.8 °F 11.9 °F 21.2 °F 86% 29.90 in 5.0 mi NNW 16.1 mph - N/A   Overcast
5:34 AM 23.0 °F 10.6 °F 21.2 °F 93% 29.92 in 7.0 mi NNW 13.8 mph 20.7 mph N/A   Overcast
5:53 AM 23.0 °F 10.6 °F 21.2 °F 93% 29.93 in 7.0 mi NNW 13.8 mph 19.6 mph N/A   Overcast
6:13 AM 23.0 °F 9.2 °F 21.2 °F 93% 29.94 in 5.0 mi NNW 17.3 mph 20.7 mph N/A   Overcast
6:53 AM 23.0 °F 9.2 °F 21.2 °F 93% 29.96 in 5.0 mi NNW 17.3 mph 21.9 mph N/A   Overcast
7:34 AM 23.0 °F 9.2 °F 21.2 °F 93% 29.96 in 5.0 mi NNW 17.3 mph - N/A   Overcast
7:53 AM 23.0 °F 8.0 °F 21.2 °F 93% 29.94 in 5.0 mi NNW 20.7 mph 25.3 mph N/A   Overcast
8:13 AM 23.0 °F 8.7 °F 21.2 °F 93% 29.97 in 5.0 mi NNW 18.4 mph - N/A   Overcast
8:33 AM 23.0 °F 12.4 °F 21.2 °F 93% 30.01 in 5.0 mi NW 10.4 mph - N/A   Overcast
8:53 AM 23.0 °F 11.1 °F 21.2 °F 93% 30.03 in 5.0 mi NNW 12.7 mph - N/A   Overcast
9:13 AM 23.0 °F 10.6 °F 21.2 °F 93% 30.03 in 5.0 mi NNW 13.8 mph - N/A   Overcast
9:33 AM 23.0 °F 9.6 °F 21.2 °F 93% 30.03 in 7.0 mi NNW 16.1 mph - N/A   Overcast
9:53 AM 24.8 °F 12.4 °F 21.2 °F 86% 30.03 in 7.0 mi NNW 15.0 mph - N/A   Overcast
10:13 AM 24.8 °F 12.9 °F 21.2 °F 86% 30.02 in 7.0 mi North 13.8 mph - N/A   Overcast
10:33 AM 24.8 °F 12.4 °F 19.4 °F 80% 30.03 in 7.0 mi NNW 15.0 mph - N/A   Overcast
10:53 AM 24.8 °F 11.5 °F 21.2 °F 86% 30.03 in 7.0 mi NNW 17.3 mph - N/A   Overcast
11:13 AM 24.8 °F 11.5 °F 21.2 °F 86% 30.02 in 7.0 mi North 17.3 mph - N/A   Overcast
11:33 AM 24.8 °F 10.7 °F 21.2 °F 86% 30.02 in 7.0 mi North 19.6 mph 23.0 mph N/A   Overcast
11:53 AM 24.8 °F 12.9 °F 21.2 °F 86% 30.02 in 7.0 mi North 13.8 mph - N/A   Overcast
12:13 PM 24.8 °F 11.5 °F 21.2 °F 86% 30.02 in 10.0 mi North 17.3 mph 20.7 mph N/A   Overcast
12:33 PM 26.6 °F 16.2 °F 21.2 °F 80% 30.05 in 10.0 mi North 11.5 mph 18.4 mph N/A   Overcast
12:53 PM 26.6 °F 14.7 °F 21.2 °F 80% 30.05 in 10.0 mi North 15.0 mph - N/A   Overcast
1:14 PM 26.6 °F 13.4 °F 21.2 °F 80% 30.03 in 10.0 mi North 18.4 mph 21.9 mph N/A   Overcast
1:33 PM 26.6 °F 14.3 °F 21.2 °F 80% 30.01 in 10.0 mi North 16.1 mph 25.3 mph N/A   Overcast
1:53 PM 26.6 °F 13.4 °F 21.2 °F 80% 30.00 in 7.0 mi North 18.4 mph 27.6 mph N/A   Overcast
2:14 PM 26.6 °F 13.8 °F 21.2 °F 80% 30.01 in 10.0 mi North 17.3 mph 25.3 mph N/A   Overcast
2:33 PM 26.6 °F 13.8 °F 21.2 °F 80% 30.02 in 10.0 mi North 17.3 mph 25.3 mph N/A   Overcast
2:53 PM 26.6 °F 15.2 °F 21.2 °F 80% 30.02 in 10.0 mi North 13.8 mph 19.6 mph N/A   Overcast
3:14 PM 26.6 °F 15.7 °F 21.2 °F 80% 30.04 in 10.0 mi North 12.7 mph - N/A   Overcast
3:33 PM 26.6 °F 15.7 °F 21.2 °F 80% 30.03 in 10.0 mi North 12.7 mph - N/A   Overcast
3:53 PM 26.6 °F 14.3 °F 21.2 °F 80% 30.02 in 10.0 mi North 16.1 mph - N/A   Overcast
4:14 PM 26.6 °F 14.3 °F 19.4 °F 74% 30.01 in 10.0 mi North 16.1 mph 24.2 mph N/A   Overcast
4:33 PM 26.6 °F 13.4 °F 19.4 °F 74% 30.00 in 10.0 mi North 18.4 mph - N/A   Overcast
4:53 PM 26.6 °F 12.7 °F 19.4 °F 74% 29.98 in 10.0 mi North 20.7 mph - N/A   Overcast
5:14 PM 24.8 °F 10.7 °F 19.4 °F 80% 29.97 in 10.0 mi North 19.6 mph 25.3 mph N/A   Overcast
5:33 PM 24.8 °F 10.7 °F 19.4 °F 80% 29.97 in 10.0 mi North 19.6 mph 27.6 mph N/A   Overcast
5:53 PM 24.8 °F 11.9 °F 19.4 °F 80% 29.99 in 10.0 mi North 16.1 mph 26.5 mph N/A   Overcast
6:13 PM 24.8 °F 11.1 °F 19.4 °F 80% 29.98 in 10.0 mi North 18.4 mph 21.9 mph N/A   Mostly Cloudy
6:33 PM 24.8 °F 11.5 °F 19.4 °F 80% 29.98 in 10.0 mi North 17.3 mph 23.0 mph N/A   Mostly Cloudy
6:53 PM 24.8 °F 12.4 °F 19.4 °F 80% 29.99 in 10.0 mi North 15.0 mph - N/A   Overcast
7:13 PM 24.8 °F 12.9 °F 19.4 °F 80% 29.99 in 10.0 mi North 13.8 mph 19.6 mph N/A   Scattered Clouds
7:33 PM 24.8 °F 11.9 °F 19.4 °F 80% 29.99 in 10.0 mi North 16.1 mph 21.9 mph N/A   Clear
7:53 PM 24.8 °F 11.5 °F 19.4 °F 80% 29.98 in 10.0 mi North 17.3 mph - N/A   Mostly Cloudy
8:13 PM 24.8 °F 11.9 °F 19.4 °F 80% 29.99 in 10.0 mi North 16.1 mph - N/A   Overcast
8:33 PM 23.0 °F 11.7 °F 19.4 °F 86% 29.99 in 10.0 mi NNW 11.5 mph - N/A   Overcast
8:53 PM 23.0 °F 11.1 °F 19.4 °F 86% 29.99 in 10.0 mi NNW 12.7 mph - N/A   Overcast
9:13 PM 23.0 °F 13.1 °F 19.4 °F 86% 29.99 in 10.0 mi North 9.2 mph - N/A   Overcast
9:33 PM 21.2 °F 10.1 °F 17.6 °F 86% 30.00 in 10.0 mi NNW 10.4 mph - N/A   Overcast
10:13 PM 19.4 °F 7.9 °F 17.6 °F 93% 29.99 in 10.0 mi NNW 10.4 mph - N/A   Overcast
10:53 PM 17.6 °F 5.0 °F 15.8 °F 93% 29.98 in 10.0 mi NNW 11.5 mph - N/A   Scattered Clouds
11:13 PM 17.6 °F 6.4 °F 15.8 °F 93% 29.98 in 10.0 mi North 9.2 mph - N/A   Scattered Clouds
11:33 PM 17.6 °F 5.7 °F 15.8 °F 93% 29.97 in 10.0 mi North 10.4 mph - N/A   Scattered Clouds
11:53 PM 15.8 °F 4.2 °F 14.0 °F 93% 29.97 in 10.0 mi NNW 9.2 mph - N/A   Scattered Clouds
12:13 AM 15.8 °F 4.2 °F 12.2 °F 86% 29.97 in 10.0 mi NNW 9.2 mph - N/A   Clear
12:33 AM 17.6 °F 5.0 °F 14.0 °F 86% 29.97 in 10.0 mi NNW 11.5 mph - N/A   Mostly Cloudy
12:53 AM 17.6 °F 4.3 °F 14.0 °F 86% 29.96 in 10.0 mi NNW 12.7 mph - N/A   Overcast